FW3135 Weather Reports


time (UTC)temp
C
wind
direction
speed
KPH
gust
KPH
rain 1hr
cm
rain 24hr
cm
rain mn
cm
humidity
%
barometer
mb
20260904113322 21 264 1.6 12.9 0.00 0.00 0.00 85 1023.1
20260904110324 21 288 1.6 3.2 0.00 0.00 0.00 83 1023.2
20260904105840 21 291 0.0 4.8 0.00 0.00 0.00 83 1023.1
20260904102320 23 175 4.8 12.9 0.00 0.00 0.00 76 1023.0
20260904101813 23 156 8.0 12.9 0.00 0.00 0.00 73 1022.7
20260904101337 25 167 3.2 9.7 0.00 0.00 0.00 70 1022.2
20260904100832 25 222 0.0 0.0 0.00 0.00 0.00 71 1021.9
20260904100325 25 222 0.0 1.6 0.00 0.00 0.00 72 1021.4
20260904095826 24 275 0.0 9.7 0.00 0.00 0.00 73 1021.2
20260904095322 24 325 3.2 9.7 0.00 0.00 0.00 73 1020.7
20260904094824 24 42 4.8 16.1 0.00 0.00 0.00 75 1020.7
20260904094326 23 360 6.4 16.1 0.00 0.00 0.00 76 1021.0
20260904093819 23 93 4.8 17.7 0.00 0.00 0.00 78 1021.2
20260904093323 22 360 9.7 19.3 0.00 0.00 0.00 81 1021.1
20260904092819 22 82 9.7 16.1 0.00 0.00 0.00 84 1021.4
20260904092321 21 73 4.8 14.5 0.00 0.00 0.00 87 1021.6
20260904091817 21 71 6.4 14.5 0.00 0.00 0.00 87 1021.9
20260904091314 20 360 4.8 19.3 0.00 0.00 0.00 87 1022.5
20260904090818 20 78 1.6 19.3 0.00 0.00 0.00 86 1022.6
20260904090321 21 360 8.0 27.4 0.00 0.00 0.00 86 1022.9
20260904085816 21 131 14.5 27.4 0.00 0.00 0.00 85 1023.1
20260904085339 21 35 4.8 9.7 0.00 0.00 0.00 89 1022.0
20260904084818 20 61 3.2 12.9 0.00 0.00 0.00 90 1022.2
20260904084344 20 74 1.6 16.1 0.00 0.00 0.00 90 1022.3
20260904083816 20 78 4.8 16.1 0.00 0.00 0.00 90 1022.2
20260904083329 20 335 9.7 16.1 0.00 0.00 0.00 90 1022.4
20260904082838 19 318 3.2 12.9 0.00 0.00 0.00 89 1022.8
20260904082333 19 360 6.4 12.9 0.00 0.00 0.00 89 1023.1
20260904081815 20 360 8.0 9.7 0.00 0.00 0.00 88 1022.9
20260904080835 20 360 9.7 16.1 0.00 0.00 0.00 87 1023.2
20260904080324 20 360 6.4 19.3 0.00 0.00 0.00 87 1022.8
20260904075826 20 193 8.0 19.3 0.00 0.00 0.00 86 1023.2
20260904075350 21 360 3.2 8.0 0.00 0.00 0.00 86 1022.7
20260904074822 21 360 3.2 6.4 0.00 0.00 0.00 85 1022.6
20260904074407 21 200 0.0 6.4 0.00 0.00 0.00 85 1022.3
20260904074331 21 200 0.0 6.4 0.00 0.00 0.00 85 1022.3
20260904073839 21 96 0.0 9.7 0.00 0.00 0.00 86 1022.3
20260904073348 21 95 1.6 9.7 0.00 0.00 0.00 86 1022.3
20260904072823 21 115 3.2 12.9 0.00 0.00 0.00 86 1022.2
20260904072313 21 134 8.0 12.9 0.00 0.00 0.00 86 1022.2
20260904071819 21 360 3.2 16.1 0.00 0.00 0.00 86 1021.9
20260904071343 21 140 8.0 16.1 0.00 0.00 0.00 85 1022.2
20260904070846 21 360 9.7 19.3 0.00 0.00 0.00 85 1022.2
20260904070322 21 134 11.3 19.3 0.00 0.00 0.00 85 1022.3
20260904065818 21 126 4.8 17.7 0.00 0.00 0.00 84 1022.1
20260904065332 21 360 8.0 25.7 0.00 0.00 0.00 83 1021.9
20260904064816 22 360 19.3 25.7 0.00 0.00 0.00 79 1022.3
20260904064335 22 132 8.0 12.9 0.00 0.00 0.00 81 1021.9
20260904063831 22 86 4.8 14.5 0.00 0.00 0.00 82 1021.4
20260904063337 21 42 6.4 14.5 0.00 0.00 0.00 83 1021.3
20260904062834 21 77 3.2 11.3 0.00 0.00 0.00 85 1021.6
20260904050323 22 360 6.4 14.5 0.00 0.00 0.00 79 1020.7
20260904045918 22 34 1.6 6.4 0.00 0.00 0.00 79 1019.9
20260904045844 22 34 1.6 6.4 0.00 0.00 0.00 79 1019.9
20260904045333 22 269 3.2 6.4 0.00 0.00 0.00 79 1020.0
20260904022333 21 323 4.8 22.5 0.00 0.00 0.00 76 1021.5
20260904021819 22 224 4.8 22.5 0.00 0.00 0.00 76 1021.6
20260904021352 22 360 11.3 22.5 0.00 0.00 0.00 75 1021.6
20260904020838 23 360 8.0 17.7 0.00 0.00 0.00 71 1022.1
20260904020323 23 360 8.0 17.7 0.00 0.00 0.00 68 1022.0
20260904015821 25 227 8.0 14.5 0.00 0.00 0.00 64 1022.1
20260904015421 25 257 4.8 11.3 0.00 0.00 0.00 62 1021.8
20260904015345 25 257 4.8 11.3 0.00 0.00 0.00 62 1021.8
20260904014835 25 241 4.8 16.1 0.00 0.00 0.00 62 1021.8
20260904014330 24 360 11.3 19.3 0.00 0.00 0.00 62 1022.2
20260904013823 23 360 8.0 19.3 0.00 0.00 0.00 68 1021.8
20260904013356 22 360 8.0 14.5 0.00 0.00 0.00 72 1022.5
20260904012846 22 32 3.2 25.7 0.00 0.00 0.00 73 1022.0
20260904012332 22 360 6.4 37.0 0.00 0.00 0.00 74 1022.0
20260904011841 22 360 20.9 40.2 0.00 0.00 0.00 73 1022.7
20260904011339 23 360 12.9 40.2 0.00 0.00 0.00 68 1021.6
20260904010857 27 360 12.9 22.5 0.00 0.00 0.00 58 1021.0
20260904010326 27 117 4.8 14.5 0.00 0.00 0.00 46 1020.2
20260904005847 28 146 8.0 14.5 0.00 0.00 0.00 44 1020.2
20260904005347 28 117 0.0 14.5 0.00 0.00 0.00 43 1020.1
20260904004819 28 87 4.8 16.1 0.00 0.00 0.00 42 1019.8
20260904004336 28 74 9.7 16.1 0.00 0.00 0.00 41 1019.8
20260904003815 29 85 4.8 16.1 0.00 0.00 0.00 40 1020.0
20260904003328 29 360 9.7 16.1 0.00 0.00 0.00 39 1020.0
20260904002826 29 83 11.3 16.1 0.00 0.00 0.00 38 1019.9
20260904002320 30 69 9.7 14.5 0.00 0.00 0.00 37 1019.9
20260904001831 29 78 8.0 16.1 0.00 0.00 0.00 37 1020.0
20260904001412 29 80 8.0 16.1 0.00 0.00 0.00 37 1020.1
20260904001331 29 80 8.0 16.1 0.00 0.00 0.00 37 1020.1
20260904000842 28 62 8.0 16.1 0.00 0.00 0.00 38 1020.2
20260904000337 26 84 8.0 16.1 0.00 0.00 0.00 42 1020.2
20260903235854 25 74 1.6 9.7 0.00 0.00 0.00 55 1020.4
20260903235324 26 200 3.2 9.7 0.00 0.00 0.00 60 1020.5
20260903234825 26 360 3.2 9.7 0.00 0.00 0.00 55 1020.4
20260903234320 25 34 3.2 9.7 0.00 0.00 0.00 55 1020.4
20260903233828 25 194 1.6 9.7 0.00 0.00 0.00 65 1020.5
20260903233321 26 178 3.2 6.4 0.00 0.00 0.00 61 1020.6
20260903232821 26 169 1.6 3.2 0.00 0.00 0.00 60 1020.6
20260903232329 26 355 0.0 6.4 0.00 0.00 0.00 56 1020.6
20260903231831 26 355 1.6 9.7 0.00 0.00 0.00 55 1020.6
20260903231327 27 335 4.8 9.7 0.00 0.00 0.00 54 1020.8
20260903230819 28 300 4.8 11.3 0.00 0.00 0.00 48 1020.8
20260903230341 28 75 1.6 16.1 0.00 0.00 0.00 44 1020.8
20260903225819 29 269 3.2 17.7 0.00 0.00 0.00 40 1020.8
20260903223826 28 348 6.4 17.7 0.00 0.00 0.00 48 1020.3
20260903213321 22 360 3.2 9.7 0.00 0.00 0.00 77 1022.0
20260903212319 23 360 1.6 8.0 0.00 0.00 0.00 75 1022.0
20260903211341 23 109 1.6 6.4 0.00 0.00 0.00 74 1021.6
20260903210823 23 138 3.2 6.4 0.00 0.00 0.00 74 1021.5
20260903210315 23 116 4.8 9.7 0.00 0.00 0.00 73 1021.5
20260903205851 24 360 4.8 9.7 0.00 0.00 0.00 72 1021.4
20260903205348 24 143 4.8 8.0 0.00 0.00 0.00 71 1021.4
20260903203321 25 360 6.4 12.9 0.00 0.00 0.00 68 1020.8
20260903202825 25 360 4.8 9.7 0.00 0.00 0.00 66 1020.7
20260903202321 26 122 3.2 9.7 0.00 0.00 0.00 65 1020.6
20260903201816 26 122 4.8 9.7 0.00 0.00 0.00 65 1020.5
20260903201340 26 360 6.4 9.7 0.00 0.00 0.00 62 1020.5
20260903200815 27 117 1.6 4.8 0.00 0.00 0.00 60 1020.3
20260903200318 27 111 3.2 4.8 0.00 0.00 0.00 58 1020.1
20260903195837 28 142 0.0 9.7 0.00 0.00 0.00 59 1020.0
20260903195314 28 131 0.0 9.7 0.00 0.00 0.00 55 1019.8
20260903194830 29 140 1.6 4.8 0.00 0.00 0.00 55 1019.7
20260903194332 29 46 0.0 1.6 0.00 0.00 0.00 54 1019.6
20260903193828 29 46 0.0 3.2 0.00 0.00 0.00 51 1019.6
20260903193328 28 45 0.0 3.2 0.00 0.00 0.00 52 1019.5
20260903192819 28 45 1.6 4.8 0.00 0.00 0.00 56 1019.4
20260903192315 27 360 0.0 3.2 0.00 0.00 0.00 59 1019.5
20260903191819 27 176 0.0 3.2 0.00 0.00 0.00 59 1019.4
20260903191315 27 176 0.0 6.4 0.00 0.00 0.00 58 1019.4
20260903190835 28 176 3.2 8.0 0.00 0.00 0.00 56 1019.5
20260903190331 30 360 4.8 8.0 0.00 0.00 0.00 53 1019.3
20260903185833 32 165 4.8 8.0 0.00 0.00 0.00 49 1019.2
20260903185330 33 150 3.2 6.4 0.00 0.00 0.00 45 1019.1
20260903184854 33 109 1.6 6.4 0.00 0.00 0.00 42 1019.0
20260903184328 33 205 0.0 4.8 0.00 0.00 0.00 44 1019.0
20260903183852 33 279 0.0 1.6 0.00 0.00 0.00 39 1018.9
20260903183328 34 279 0.0 3.2 0.00 0.00 0.00 40 1018.9
20260903182830 34 278 1.6 3.2 0.00 0.00 0.00 38 1019.0
20260903182343 35 277 1.6 6.4 0.00 0.00 0.00 39 1019.0
20260903181825 35 308 3.2 9.7 0.00 0.00 0.00 33 1018.9
20260903181319 35 360 4.8 12.9 0.00 0.00 0.00 33 1019.0
20260903180842 35 360 3.2 6.4 0.00 0.00 0.00 34 1019.0
20260903180316 35 300 4.8 6.4 0.00 0.00 0.00 35 1019.1
20260903175817 35 299 1.6 8.0 0.00 0.00 0.00 37 1019.1
20260903175400 35 292 3.2 8.0 0.00 0.00 0.00 34 1019.2
20260903174814 35 310 3.2 8.0 0.00 0.00 0.00 34 1019.2
20260903174330 35 333 3.2 8.0 0.00 0.00 0.00 34 1019.3
20260903173834 35 360 3.2 9.7 0.00 0.00 0.00 33 1019.4
20260903173329 35 360 6.4 12.9 0.00 0.00 0.00 33 1019.3
20260903172825 35 360 6.4 14.5 0.00 0.00 0.00 34 1019.4
20260903172327 35 321 6.4 14.5 0.00 0.00 0.00 34 1019.4
20260903171852 35 360 6.4 14.5 0.00 0.00 0.00 34 1019.5
20260903171333 34 360 6.4 16.1 0.00 0.00 0.00 36 1019.5
20260903170847 32 360 8.0 17.7 0.00 0.00 0.00 38 1019.6
20260903170330 31 325 8.0 19.3 0.00 0.00 0.00 44 1019.7
20260903165819 31 360 9.7 19.3 0.00 0.00 0.00 47 1019.6
20260903165321 32 360 8.0 14.5 0.00 0.00 0.00 46 1019.6
20260903164814 34 360 6.4 9.7 0.00 0.00 0.00 37 1019.3
20260903164336 36 253 4.8 6.4 0.00 0.00 0.00 32 1019.2
20260903163831 36 248 3.2 6.4 0.00 0.00 0.00 30 1019.2
20260903163323 36 267 1.6 6.4 0.00 0.00 0.00 31 1019.3
20260903162823 36 254 4.8 6.4 0.00 0.00 0.00 30 1019.2
20260903162341 35 360 3.2 6.4 0.00 0.00 0.00 32 1019.2
20260903161815 35 360 4.8 6.4 0.00 0.00 0.00 31 1019.3
20260903161328 35 360 4.8 6.4 0.00 0.00 0.00 31 1019.3
20260903160829 36 262 4.8 6.4 0.00 0.00 0.00 31 1019.4
20260903160320 36 257 3.2 6.4 0.00 0.00 0.00 32 1019.4
20260903155819 35 360 4.8 6.4 0.00 0.00 0.00 32 1019.5
20260903155338 35 360 3.2 6.4 0.00 0.00 0.00 33 1019.6
20260903154815 35 360 3.2 6.4 0.00 0.00 0.00 33 1019.6
20260903154326 35 254 1.6 9.7 0.00 0.00 0.00 33 1019.6
20260903153818 35 360 4.8 9.7 0.00 0.00 0.00 33 1019.7
20260903153319 35 266 1.6 4.8 0.00 0.00 0.00 35 1019.7
20260903152833 33 360 1.6 6.4 0.00 0.00 0.00 36 1019.7
20260903152332 33 311 3.2 8.0 0.00 0.00 0.00 36 1019.8
20260903151856 33 360 4.8 8.0 0.00 0.00 0.00 37 1019.8
20260903151330 32 251 6.4 8.0 0.00 0.00 0.00 38 1019.9
20260903150824 32 360 6.4 8.0 0.00 0.00 0.00 38 1019.8
20260903150323 32 256 4.8 8.0 0.00 0.00 0.00 39 1019.9
20260903145833 33 250 6.4 8.0 0.00 0.00 0.00 36 1019.9
20260903145328 33 360 3.2 6.4 0.00 0.00 0.00 39 1020.0
20260903144821 33 237 3.2 6.4 0.00 0.00 0.00 38 1020.0
20260903144315 32 243 3.2 4.8 0.00 0.00 0.00 40 1020.1
20260903143816 32 242 3.2 6.4 0.00 0.00 0.00 42 1020.2
20260903143331 32 256 3.2 6.4 0.00 0.00 0.00 40 1020.2
20260903142835 32 254 3.2 4.8 0.00 0.00 0.00 46 1020.3
20260903142332 32 240 3.2 4.8 0.00 0.00 0.00 53 1020.4
20260903141831 32 249 3.2 4.8 0.00 0.00 0.00 50 1020.5
20260903141353 32 238 3.2 4.8 0.00 0.00 0.00 48 1020.4
20260903140829 32 243 1.6 4.8 0.00 0.00 0.00 47 1020.6
20260903140346 31 243 0.0 4.8 0.00 0.00 0.00 42 1020.6
20260903135822 31 243 3.2 4.8 0.00 0.00 0.00 45 1020.8
20260903135314 31 360 1.6 4.8 0.00 0.00 0.00 52 1020.7
20260903134838 31 242 1.6 4.8 0.00 0.00 0.00 52 1020.7
20260903134341 31 243 1.6 3.2 0.00 0.00 0.00 47 1020.6
20260903133816 31 242 0.0 4.8 0.00 0.00 0.00 48 1020.8
20260903133331 31 245 1.6 4.8 0.00 0.00 0.00 49 1020.8
20260903132832 31 245 3.2 4.8 0.00 0.00 0.00 45 1020.9
20260903132321 31 239 3.2 4.8 0.00 0.00 0.00 47 1020.9
20260903131815 30 239 3.2 4.8 0.00 0.00 0.00 52 1021.0
20260903131327 30 240 3.2 6.4 0.00 0.00 0.00 50 1021.1
20260903130822 30 238 3.2 8.0 0.00 0.00 0.00 48 1021.1
20260903130346 29 240 3.2 8.0 0.00 0.00 0.00 50 1021.1